STARLINK-33740 (63451 NORAD) Tracking and Keplerian Element Data

This shows tracking and keplerian element data for the satellite.

Feedback or suggestion? Click here.




ElementValue
Catalog63451
NameSTARLINK-33740
Epoch Orbit4101
Epoch Day353.47388916
Epoch Year2025
RAAN155.0432
Inclination53.1581
Eccentricity0.0001181
Argument of Perigee108.2054
Mean Anonmoly251.9075
Mean Motion15.30208184
Decay Rate0.00015594
L11 63451U 25069U 25353.47388916 .00015594 00000+0 53739-3 0 9998
L22 63451 53.1581 155.0432 0001181 108.2054 251.9075 15.30208184 41012



Live tracking and technical data element details for STARLINK-33740 (NORAD 63451). STARLINK-33740 can be tracked NOW for your location showing map with azimuth and elevation plus other details from your city location.







IsCatalogInMostPopularTable: catalog: 63451, numindb: 2
Update: records affected: 1



GetName: 63451 STARLINK-33740

Hit Count: updated at: Sat, 07 Feb 2026 07:05:48 GMT